sat.trackr.live / text

‹ back to catalog

STARLINK-37304

NORAD 68683 · 2026-077X

PAYLOAD ACTIVE UNKNOWN

§ Identity

Operator
Country
US
Launch date
2026-04-11
Launch site
AFWTR
Launch vehicle
Mass (kg)
RCS (m²)

Purposes: comms

External: N2YO · Heavens-Above · Gunter

§ Orbital elements

Epoch: 2026-09-19T21:18:05.226336Z

Period
93.91 min
Inclination
97.2848°
Eccentricity
0.0001748
Mean motion
15.33443813 rev/d
Perigee alt
464.4 km
Apogee alt
466.7 km
Semi-major
6,843.7 km
B*
3.2054e-4
RAAN
132.8611°
Arg perigee
89.7919°
Mean anomaly
270.3524°
Rev number
2,492

§ Raw data

STARLINK-373041 68683U 26077X   26262.88756049  .00010287  00000+0  32054-3 0  99922 68683  97.2848 132.8611 0001748  89.7919 270.3524 15.33443813 24921

JSON: /api/v1/satellites/68683 · /tle

For live sub-satellite position, see the globe view (requires WebGL).

§ Visibility from observer

Set your observer location to see the next 7 days of passes ≥ 10°. The values pass through the URL so the page stays shareable.

No JS? Fill the form by hand. The geolocation button needs JavaScript.